Regional Weather Roundup
Issued by NWS

Home | Current Version | Previous Version | Graphics & Text | Print | Product List | Glossary On
Versions: 1 2 3 4 5 6 7 8 9 10 11 12 13 14 15 16 17 18 19 20 21 22 23 24 25 26 27 28 29 30 31 32 33 34 35 36 37 38 39 40 41 42 43 44 45 46 47 48 49 50
000
ASUS43 KTOP 210459
RWRKS

WEATHER ROUNDUP FOR KANSAS
NATIONAL WEATHER SERVICE GOODLAND KS
1200 AM CDT SAT OCT 21 2017

NOTE:  "FAIR" INDICATES FEW OR NO CLOUDS BELOW 12,000 FEET WITH NO
SIGNIFICANT WEATHER AND/OR OBSTRUCTIONS TO VISIBILITY.

KSZ001>006-013>018-027>032-041>047-210600-
NORTHWEST KANSAS

CITY           SKY/WX    TMP DP  RH WIND       PRES   REMARKS
GOODLAND       CLEAR     57  44  62 S14       29.51S
HAYS           CLEAR     68  60  75 S25G36    29.59S
HILL CITY      CLEAR     69  59  70 S24G39    29.54F
RUSSELL        CLEAR     69  63  81 S32G44    29.60F
$$

KSZ061>065-074>080-084>089-210600-
SOUTHWEST KANSAS

CITY           SKY/WX    TMP DP  RH WIND       PRES   REMARKS
DODGE CITY     CLEAR     68  57  68 S29G40    29.66S
ELKHART          N/A     63  50  63 S15         N/A
GARDEN CITY    CLEAR     67  55  65 S24G32    29.61S
GREAT BEND     CLEAR     68  62  81 S29G37    29.64F
LIBERAL        CLEAR     68  57  68 S26G32    29.65F
$$

KSZ066>073-081>083-090>101-210600-
SOUTHEAST KANSAS

CITY           SKY/WX    TMP DP  RH WIND       PRES   REMARKS
CHANUTE        CLEAR     65  59  81 S16       29.88F
COFFEYVILLE    CLEAR     65  60  84 S12       29.89S
HUTCHINSON     CLEAR     69  63  81 S28G37    29.73F
MEDICINE LODGE   N/A     69  61  75 S20G33    29.73F
NEWTON         CLOUDY    69  61  75 S28G38    29.77F
PARSONS        CLEAR     65  59  81 S8        29.90F
WICHITA INTL   MOCLDY    70  63  78 S23G32    29.78S
WICHITA JABRA  CLOUDY    70  63  78 S22G28    29.79S
WICHITA MCCONL CLOUDY    70  61  73 S26G38    29.80S
WINFIELD       PTCLDY    69  63  81 S20G26    29.83F
$$

KSZ007>012-019>026-033>040-048>060-102>105-210600-
NORTHEAST KANSAS

CITY           SKY/WX    TMP DP  RH WIND       PRES   REMARKS
CONCORDIA      MOCLDY    70  61  73 S26G43    29.65F
EMPORIA        CLEAR     66  58  75 S23G32    29.81S
LAWRENCE       CLOUDY    67  59  75 SE20      29.84S
MANHATTAN      CLOUDY    70  59  68 S25G37    29.72F
OLATHE IND     CLOUDY    65  57  75 S21G26    29.87F
OLATHE EXE     CLOUDY    64  57  78 S17G24    29.88S
SALINA         CLEAR     73  63  70 S29G46    29.68F
TOPEKA BILLARD CLOUDY    68  59  73 S17G30    29.80R
TOPEKA FORBES  CLOUDY    68  59  73 S18G28    29.81R
$$



USA.gov is the U.S. government's official web portal to all federal, state and local government web resources and services.